#timestamp,LO_Frequency,Hit,StdDev 
1570154415.9,286046996.6,Y
1570154435.7,286046995.3,P
1570154455.6,286046997.1,N
1570154475.4,286046996.8,N
1570154495.3,286046999.4,N
1570154515.1,286046999.9,N
1570154535.8,286047001.0,N
1570154555.7,286047000.3,N
1570154575.5,286046998.3,N
1570154595.4,286046998.9,N
1570154615.2,286046999.6,N
1570154635.0,286046997.3,N
1570154635.9,286046997.3,N
1570154655.8,286046995.1,Y
1570154675.6,286046997.0,P
1570154695.5,286046997.4,P
1570154715.3,286047000.3,N
1570154735.1,286047002.8,N
1570154755.9,286047000.2,N
1570154775.7,286047000.7,N
1570154795.6,286047000.0,N
1570154815.4,286047002.5,N
1570154835.2,286047001.9,N
1570154855.1,286047001.9,N
1570154856.0,286047001.9,N
1570154875.8,286047000.3,N
1570154895.6,286046998.9,N
1570154915.5,286046998.3,N
1570154935.3,286046999.7,N
1570154955.2,286047001.3,N
1570154975.9,286047004.3,N
1570154995.7,286047002.1,N
1570155015.6,286047000.2,N
1570155035.4,286046999.9,N
1570155055.2,286047002.6,N
1570155075.1,286047001.0,N
1570155076.0,286047001.0,N
1570155095.8,286047000.3,N
1570155115.7,286047002.3,N
1570155135.5,286047002.2,N
1570155155.3,286047002.1,N
1570155175.2,286047002.5,N
1570155195.0,286047002.8,N
1570155195.9,286047002.8,N
1570155215.8,286047002.4,N
1570155235.6,286047002.1,N
1570155255.4,286047003.9,N
1570155275.3,286047003.8,N
1570155295.1,286047004.3,N
1570155315.8,286047002.0,N
1570155335.7,286047002.8,N
1570155355.5,286047001.6,N
1570155375.4,286047001.8,N
1570155395.2,286046999.7,N
1570155415.0,286047002.6,N
1570155415.9,286047002.6,N
1570155435.8,286046999.9,N
1570155455.6,286046998.3,N
1570155475.5,286047000.5,N
1570155495.3,286047000.3,N
1570155515.1,286047000.6,N
1570155535.9,286047000.0,N
1570155555.7,286047000.5,N
1570155575.5,286047000.4,N
1570155595.4,286047001.1,N
1570155615.2,286047000.2,N
1570155635.1,286047002.4,N
1570155636.0,286047002.4,N
1570155655.8,286047002.1,N
1570155675.6,286047004.1,N
1570155695.5,286047003.8,N
1570155715.3,286047003.8,N
1570155735.2,286047002.5,N
1570155755.9,286047002.6,N
1570155775.7,286047002.6,N
1570155795.6,286047004.4,N
1570155815.4,286047003.9,N
1570155835.2,286047003.5,N
1570155855.1,286047004.3,N
1570155856.0,286047004.3,N
1570155875.8,286047001.5,N
1570155895.7,286047002.5,N
1570155915.5,286047002.3,N
1570155935.3,286047000.2,N
1570155955.2,286047002.3,N
1570155975.0,286046999.7,N
1570155975.9,286046999.7,N
1570155995.8,286047002.7,N
1570156015.6,286047000.1,N
1570156035.4,286047000.5,N
1570156055.3,286047001.2,N
1570156075.1,286046999.4,N
1570156095.9,286046999.5,N
1570156115.7,286046996.6,N
1570156135.5,286046999.0,N
1570156155.4,286046996.5,N
1570156175.2,286046997.1,N
1570156195.1,286046999.0,N
1570156196.0,286046999.0,N
1570156215.8,286046996.8,N
1570156235.6,286046996.7,N
1570156255.5,286046997.4,N
1570156275.3,286046997.3,N
1570156295.1,286046995.3,N
1570156315.9,286046995.0,N
1570156335.7,286046997.3,N
1570156355.6,286046995.4,N
1570156375.4,286046994.9,N
1570156395.2,286046995.6,N
1570156415.1,286046995.8,N
1570156416.0,286046995.8,N
1570156435.8,286046995.1,N
1570156455.7,286046997.4,N
1570156475.5,286046995.1,N
1570156495.3,286046995.3,N
1570156515.2,286046995.8,N
1570156535.0,286046995.3,N
1570156535.9,286046995.3,N
1570156555.7,286046997.6,N
1570156575.6,286046998.9,N
1570156595.4,286046997.0,N
1570156615.3,286046999.2,N
1570156635.1,286046999.5,N
1570156655.8,286046999.6,N
1570156675.7,286046996.9,N
1570156695.5,286046999.2,N
1570156715.4,286046997.6,N
1570156735.2,286046997.5,N
1570156755.0,286046997.0,N
1570156755.9,286046997.0,N
1570156775.8,286046997.0,N
1570156795.6,286046997.2,N
1570156815.5,286046995.4,Y
1570156835.3,286047000.4,P
1570156855.1,286047000.1,N
1570156875.9,286047002.6,N
1570156895.7,286047002.5,N
1570156915.6,286047001.9,N
1570156935.4,286047002.5,N
1570156955.2,286047002.3,N
1570156975.1,286047002.7,N
1570156976.0,286047002.7,N
1570156995.8,286047001.3,N
1570157015.7,286047001.5,N
1570157035.5,286047002.6,N
1570157055.3,286047002.0,N
1570157075.2,286047003.6,N
1570157095.0,286047002.1,N
1570157095.9,286047002.1,N
1570157115.8,286047003.9,N
1570157135.6,286047005.0,Y
1570157155.4,286046999.7,P
1570157175.3,286047000.0,N
1570157195.1,286047001.1,N
1570157215.9,286047000.9,N
1570157235.7,286047000.7,N
1570157255.5,286047000.3,N
1570157275.4,286047002.4,Y
1570157295.2,286047000.0,P
1570157315.1,286047000.1,N
1570157316.0,286047000.1,N
1570157335.8,286047000.8,N
1570157355.6,286047000.6,N
1570157375.5,286046999.7,N
1570157395.3,286047001.9,Y
1570157415.2,286047001.9,P
1570157435.9,286047004.0,P
1570157455.7,286047004.1,N
1570157475.6,286047001.6,N
1570157495.4,286047002.0,N
1570157515.2,286047001.5,N
1570157535.1,286047004.4,Y
1570157536.0,286047004.4,P
1570157555.8,286046999.9,N
1570157575.7,286046999.7,N
1570157595.5,286047002.7,N
1570157615.3,286047000.8,N
1570157635.2,286046998.9,N
1570157655.0,286046998.7,N
1570157655.9,286046998.7,N
1570157675.8,286046998.8,N
1570157695.6,286046997.7,N
1570157715.4,286046997.6,N
1570157735.3,286046997.9,N
1570157755.1,286046995.4,N
1570157775.8,286046995.4,N
1570157795.7,286046994.9,N
1570157815.5,286046997.8,N
1570157835.4,286046997.9,N
1570157855.2,286046995.4,N
1570157875.0,286046995.1,N
1570157875.9,286046995.1,N
1570157895.8,286046996.7,N
1570157915.6,286046997.7,N
1570157935.4,286046995.8,N
1570157955.3,286046995.2,N
1570157975.1,286046997.8,N
1570157995.9,286047000.8,N
